FW3929 Weather Reports


time (UTC)temp
C
wind
direction
speed
KPH
gust
KPH
rain 1hr
cm
rain 24hr
cm
rain mn
cm
humidity
%
barometer
mb
20260505051558 7 242 1.6 11.3 0.00 0.71 0.00 85 1007.5
20260505041549 7 226 1.6 12.9 0.00 0.71 0.00 82 1006.5
20260505040045 8 192 4.8 17.7 0.00 0.71 0.00 80 1006.3
20260505034541 8 266 6.4 19.3 0.00 0.76 0.00 79 1006.2
20260505033041 8 282 9.7 24.1 0.00 0.76 0.00 78 1005.8
20260505031550 8 251 8.0 27.4 0.00 0.76 0.00 77 1005.7
20260505030031 9 222 6.4 30.6 0.00 0.76 0.00 76 1005.6
20260505024544 9 243 4.8 22.5 0.00 0.76 0.76 77 1005.2
20260505023038 9 312 6.4 20.9 0.00 0.76 0.76 78 1005.1
20260505021527 8 291 4.8 17.7 0.00 0.76 0.76 78 1005.0
20260505020026 8 247 6.4 19.3 0.00 0.76 0.76 77 1004.9
20260505014535 8 241 6.4 25.7 0.00 0.81 0.76 76 1004.7
20260505013025 8 228 6.4 20.9 0.00 0.81 0.76 76 1004.9
20260505011524 9 259 8.0 27.4 0.00 0.81 0.76 76 1004.8
20260505010023 9 208 8.0 17.7 0.00 0.81 0.76 75 1004.8
20260505004524 10 284 6.4 22.5 0.00 0.97 0.76 73 1004.7
20260505003021 9 193 8.0 27.4 0.00 0.97 0.76 72 1004.6
20260505001519 10 264 9.7 25.7 0.00 0.97 0.76 71 1004.5
20260505000017 10 262 11.3 25.7 0.00 0.97 0.76 67 1004.2
20260504234517 10 214 11.3 35.4 0.00 1.30 0.76 62 1003.7
20260504233013 10 234 3.2 20.9 0.00 1.30 0.76 65 1003.2
20260504231512 10 211 4.8 22.5 0.00 1.30 0.76 66 1002.9
20260504230011 10 256 3.2 22.5 0.00 1.30 0.76 64 1003.0
20260504224510 10 255 4.8 24.1 0.00 1.63 0.76 62 1002.9
20260504223009 10 222 6.4 17.7 0.00 1.63 0.76 61 1002.8
20260504221510 11 276 8.0 22.5 0.00 1.63 0.76 60 1002.7
20260504220007 11 224 6.4 33.8 0.00 1.63 0.76 60 1002.6
20260504214505 11 259 11.3 24.1 0.00 1.93 0.76 59 1002.3
20260504213004 11 294 12.9 27.4 0.00 1.93 0.76 60 1002.3
20260504211508 11 232 12.9 32.2 0.00 1.93 0.76 59 1002.1
20260504210003 11 214 16.1 38.6 0.00 2.13 0.76 58 1002.2
20260504204627 11 234 12.9 32.2 0.00 2.13 0.76 58 1002.0
20260504203134 11 298 16.1 43.5 0.00 2.13 0.76 57 1001.6
20260504201555 11 281 11.3 45.1 0.00 2.13 0.76 62 1001.5
20260504200053 11 262 8.0 35.4 0.00 2.13 0.76 64 1001.3
20260504194550 11 305 12.9 51.5 0.00 2.18 0.76 65 1000.7
20260504193050 11 306 11.3 38.6 0.00 2.18 0.76 70 1000.6
20260504191545 11 259 14.5 51.5 0.00 2.18 0.76 73 1000.1
20260504190042 10 289 17.7 37.0 0.00 2.18 0.76 76 999.9
20260504184540 10 315 14.5 32.2 0.00 2.31 0.76 78 999.8
20260504183036 9 296 9.7 41.8 0.00 2.31 0.76 82 999.5
20260504181534 8 289 14.5 32.2 0.00 2.31 0.76 84 999.4
20260504180030 7 233 12.9 38.6 0.00 2.31 0.76 87 999.2
20260504174528 7 229 16.1 46.7 0.00 2.31 0.76 89 999.0
20260504173025 7 271 11.3 41.8 0.00 2.31 0.76 89 998.6
20260504171522 7 322 14.5 35.4 0.00 2.31 0.76 91 998.4
20260504150104 5 282 17.7 40.2 0.08 2.29 0.71 97 995.5
20260504100105 2 311 16.1 41.8 0.00 1.85 0.30 98 982.6
20260504081548 2 318 6.4 33.8 0.05 1.80 0.25 99 978.7